Home > Weather > Guimarães > Past weeks

Flag for Portugal Weather for the Past 2 Weeks in Guimarães, Portugal

Now
57 °F

Cool.


Feels Like: 56 °F
Forecast: N/A
Wind: 5 mph from West

Location: Porto / Pedras Rubras

Current Time: Feb 10, 2016 at 8:38:16 PM

Latest Report: Feb 10, 2016 at 7:00 PM


Visibility: N/A

Pressure: 30.04 "Hg

Humidity: 91%

Dew point: 54 °F

Location of GuimarãesLocation

Historic Weather in Guimarães — Graph

°F

Guimarães Temperature Yesterday

Maximum temperature yesterday: 58 °F (at 1:00 PM)
Minimum temperature yesterday: 53 °F (at 7:00 PM)
Average temperature yesterday: 56 °F

High & Low Weather Summary for the Past Weeks

 TemperatureHumidityPressure
High62 °F (Feb 4, 4:00 PM)94% (Feb 10, 8:00 AM)30.67 "Hg (Feb 10, 8:00 AM)
Low39 °F (Jan 29, 5:00 AM)31% (Feb 4, 4:00 PM)29.83 "Hg (Feb 6, 5:00 PM)
Average53 °F76%30.39 "Hg
* Reported Jan 26 7:00 PM — Feb 10 7:00 PM, Guimarães, Weather by CustomWeather, © 2016

Note: Actual official high and low records may vary slightly from our data, if they occured in-between our weather recording intervals... More about our weather records

Advertising

Guimarães Weather History for the Previous 24 Hours

 ConditionsComfort  
Time TempWeatherWind HumidityBarometerVisibility
7:00 PM
Wed, Feb 10
57 °FCool.5 mph91%30.04 "HgN/A
6:00 PM56 °FCool.6 mph91%30.04 "HgN/A
5:00 PM57 °FCool.6 mph91%30.03 "HgN/A
4:00 PM58 °FCool.6 mph88%30.04 "HgN/A
3:00 PM58 °FCool.5 mph89%30.03 "HgN/A
2:00 PM58 °FCool.6 mph86%30.04 "HgN/A
1:00 PM58 °FCool.6 mph88%30.06 "HgN/A
12:00 PM57 °FCool.5 mph91%30.08 "HgN/A
11:00 AM57 °FCool.5 mph92%30.08 "HgN/A
10:00 AM58 °FCool.5 mph94%30.07 "HgN/A
9:00 AM58 °FCool.5 mph94%30.06 "HgN/A
8:00 AM58 °FCool.8 mph94%30.04 "HgN/A
7:00 AM58 °FCool.7 mph93%30.05 "HgN/A
6:00 AM57 °FCool.7 mph92%30.06 "HgN/A
5:00 AM56 °FCool.7 mph90%30.09 "HgN/A
3:00 AM56 °FCool.6 mph86%30.15 "HgN/A
9:00 PM
Tue, Feb 9
56 °FCool.5 mph81%30.21 "HgN/A
8:00 PM55 °FCool.5 mph82%30.21 "HgN/A
Weather by CustomWeather, © 2016

See weather overviewHow to use our weather pages